PRJAQ SAZS-SAWH

Flight info

Callsign PRJAQ
Flight time 2h 10m
Altitude 45000
Route TORES2G TORES UW44 ESQ UT658 GAL UW42 MUBES UW63 LOKEN DCT DABLI DABLI1Q
Aircraft C750/M-SBDE3FGHRWXY/S

Departure

Time 2026-05-08 19:50
Airport Teniente Luis Candelaria International Airport (SAZS)

Arrival

Time 2026-05-08 22:01
Airport Ushuaia - Malvinas Argentinas International Airport (SAWH)
Time Latitude Longitude Altitude Speed Heading
2026-05-08 19:30 -41.14802 -71.15677 2746 ft 0 kts 27°
2026-05-08 19:42 -41.14810 -71.15683 2746 ft 2 kts 34°
2026-05-08 19:42 -41.14823 -71.15698 2746 ft 2 kts 64°
2026-05-08 19:43 -41.14824 -71.15718 2746 ft 2 kts 110°
2026-05-08 19:43 -41.14823 -71.15722 2746 ft 0 kts 112°
2026-05-08 19:45 -41.14830 -71.15698 2745 ft 6 kts 113°
2026-05-08 19:45 -41.14864 -71.15635 2745 ft 8 kts 143°
2026-05-08 19:45 -41.14919 -71.15622 2745 ft 8 kts 193°
2026-05-08 19:45 -41.14968 -71.15662 2746 ft 9 kts 240°
2026-05-08 19:46 -41.14954 -71.15761 2746 ft 13 kts 295°
2026-05-08 19:46 -41.14909 -71.15888 2746 ft 16 kts 295°
2026-05-08 19:46 -41.14821 -71.16137 2746 ft 14 kts 295°
2026-05-08 19:47 -41.14794 -71.16247 2746 ft 11 kts 259°
2026-05-08 19:47 -41.14841 -71.16308 2748 ft 8 kts 210°
2026-05-08 19:47 -41.14880 -71.16351 2750 ft 9 kts 243°
2026-05-08 19:47 -41.14867 -71.16460 2749 ft 16 kts 291°
2026-05-08 19:48 -41.14823 -71.16595 2747 ft 16 kts 294°
2026-05-08 19:48 -41.14774 -71.16737 2748 ft 17 kts 294°
2026-05-08 19:48 -41.14725 -71.16876 2746 ft 16 kts 296°
2026-05-08 19:48 -41.14657 -71.16973 2747 ft 13 kts 321°
2026-05-08 19:49 -41.14672 -71.17019 2748 ft 7 kts 149°
2026-05-08 19:49 -41.14687 -71.16990 2747 ft 0 kts 115°
2026-05-08 19:49 -41.14702 -71.16946 2748 ft 30 kts 115°
2026-05-08 19:50 -41.14940 -71.16260 2752 ft 123 kts 115°
2026-05-08 19:50 -41.15353 -71.15064 2975 ft 152 kts 117°
2026-05-08 19:50 -41.15809 -71.13744 3590 ft 162 kts 119°
2026-05-08 19:50 -41.16318 -71.12350 4314 ft 175 kts 120°
2026-05-08 19:51 -41.16881 -71.10770 4756 ft 206 kts 119°
2026-05-08 19:51 -41.17521 -71.08914 5241 ft 230 kts 118°
2026-05-08 19:51 -41.18265 -71.07096 6390 ft 218 kts 132°
2026-05-08 19:51 -41.19399 -71.05850 7505 ft 211 kts 151°
2026-05-08 19:52 -41.20789 -71.05174 8547 ft 214 kts 163°
2026-05-08 19:52 -41.22231 -71.04640 9583 ft 217 kts 162°
2026-05-08 19:52 -41.23699 -71.04073 10487 ft 221 kts 162°
2026-05-08 19:52 -41.25198 -71.03503 11265 ft 228 kts 163°
2026-05-08 19:53 -41.26742 -71.02921 12054 ft 233 kts 163°
2026-05-08 19:53 -41.28320 -71.02331 12844 ft 238 kts 164°
2026-05-08 19:53 -41.30000 -71.02165 13509 ft 251 kts 182°
2026-05-08 19:53 -41.31802 -71.02665 13695 ft 279 kts 191°
2026-05-08 19:54 -41.33773 -71.03352 13808 ft 306 kts 191°
2026-05-08 19:54 -41.35925 -71.04073 13869 ft 331 kts 191°
2026-05-08 19:54 -41.38209 -71.04813 14390 ft 338 kts 191°
2026-05-08 19:54 -41.40494 -71.05563 15106 ft 340 kts 191°
2026-05-08 19:55 -41.42804 -71.06329 15724 ft 344 kts 191°
2026-05-08 19:55 -41.45135 -71.07099 16395 ft 347 kts 191°
2026-05-08 19:55 -41.47487 -71.07873 17077 ft 350 kts 191°
2026-05-08 19:55 -41.49859 -71.08655 17777 ft 353 kts 191°
2026-05-08 19:56 -41.52258 -71.09449 18504 ft 356 kts 191°
2026-05-08 19:56 -41.54635 -71.10236 19189 ft 357 kts 191°
2026-05-08 19:56 -41.57020 -71.11027 20158 ft 350 kts 191°
2026-05-08 19:56 -41.59366 -71.11805 21146 ft 344 kts 191°
2026-05-08 19:57 -41.61674 -71.12568 22114 ft 339 kts 190°
2026-05-08 19:57 -41.63955 -71.13324 23040 ft 336 kts 190°
2026-05-08 19:57 -41.66212 -71.14073 23925 ft 333 kts 189°
2026-05-08 19:57 -41.68452 -71.14817 24681 ft 330 kts 189°
2026-05-08 19:58 -41.70690 -71.15469 25355 ft 328 kts 186°
2026-05-08 19:58 -41.72945 -71.15841 26020 ft 326 kts 182°
2026-05-08 19:58 -41.75206 -71.15947 26673 ft 324 kts 179°
2026-05-08 19:58 -41.77458 -71.15834 27358 ft 324 kts 177°
2026-05-08 19:59 -41.79710 -71.15719 28021 ft 323 kts 178°
2026-05-08 19:59 -41.81961 -71.15617 28634 ft 323 kts 178°
2026-05-08 19:59 -41.84208 -71.15502 29263 ft 324 kts 177°
2026-05-08 19:59 -41.86439 -71.15381 29831 ft 325 kts 177°
2026-05-08 20:00 -41.88693 -71.15263 30428 ft 324 kts 178°
2026-05-08 20:00 -41.90958 -71.15149 30848 ft 327 kts 178°
2026-05-08 20:00 -41.93239 -71.15032 31257 ft 329 kts 178°
2026-05-08 20:00 -41.95525 -71.14913 31795 ft 327 kts 178°
2026-05-08 20:01 -41.97792 -71.14795 32270 ft 325 kts 178°
2026-05-08 20:01 -42.00049 -71.14679 32757 ft 324 kts 178°
2026-05-08 20:01 -42.02298 -71.14562 33243 ft 323 kts 178°
2026-05-08 20:01 -42.04539 -71.14446 33748 ft 321 kts 179°
2026-05-08 20:02 -42.06771 -71.14330 34267 ft 320 kts 179°
2026-05-08 20:02 -42.08996 -71.14215 34710 ft 320 kts 179°
2026-05-08 20:02 -42.11227 -71.14100 35131 ft 321 kts 179°
2026-05-08 20:02 -42.13440 -71.13985 35584 ft 323 kts 179°
2026-05-08 20:03 -42.15689 -71.13868 36028 ft 324 kts 179°
2026-05-08 20:03 -42.17949 -71.13751 36486 ft 326 kts 180°
2026-05-08 20:03 -42.20222 -71.13632 36959 ft 327 kts 180°
2026-05-08 20:03 -42.22499 -71.13514 37414 ft 328 kts 180°
2026-05-08 20:04 -42.24789 -71.13394 37881 ft 329 kts 180°
2026-05-08 20:04 -42.27083 -71.13275 38335 ft 331 kts 180°
2026-05-08 20:04 -42.29389 -71.13154 38832 ft 332 kts 181°
2026-05-08 20:04 -42.31700 -71.13033 39252 ft 333 kts 181°
2026-05-08 20:05 -42.34025 -71.12913 39538 ft 337 kts 181°
2026-05-08 20:05 -42.36388 -71.12789 39822 ft 341 kts 180°
2026-05-08 20:05 -42.38761 -71.12665 40178 ft 343 kts 180°
2026-05-08 20:05 -42.41160 -71.12539 40441 ft 347 kts 180°
2026-05-08 20:06 -42.43586 -71.12411 40731 ft 351 kts 180°
2026-05-08 20:06 -42.46011 -71.12284 41032 ft 354 kts 180°
2026-05-08 20:06 -42.48483 -71.12154 41332 ft 357 kts 180°
2026-05-08 20:06 -42.50974 -71.12023 41628 ft 360 kts 179°
2026-05-08 20:07 -42.53492 -71.11890 41937 ft 363 kts 179°
2026-05-08 20:07 -42.56030 -71.11756 42238 ft 366 kts 179°
2026-05-08 20:07 -42.58588 -71.11621 42525 ft 369 kts 179°
2026-05-08 20:07 -42.61167 -71.11486 42807 ft 373 kts 179°
2026-05-08 20:08 -42.63770 -71.11348 43073 ft 376 kts 179°
2026-05-08 20:08 -42.66398 -71.11209 43341 ft 379 kts 179°
2026-05-08 20:08 -42.69046 -71.11069 43620 ft 382 kts 178°
2026-05-08 20:08 -42.71714 -71.10928 43898 ft 385 kts 178°
2026-05-08 20:09 -42.74403 -71.10785 44155 ft 388 kts 178°
2026-05-08 20:09 -42.77110 -71.10642 44416 ft 391 kts 178°
2026-05-08 20:09 -42.79836 -71.10497 44680 ft 394 kts 178°
2026-05-08 20:09 -42.82551 -71.10353 44931 ft 397 kts 178°
2026-05-08 20:10 -42.85327 -71.10205 45173 ft 399 kts 178°
2026-05-08 20:10 -42.88093 -71.10056 45393 ft 398 kts 178°
2026-05-08 20:10 -42.93702 -71.09134 45385 ft 413 kts 173°
2026-05-08 20:11 -42.99513 -71.08154 45386 ft 428 kts 173°
2026-05-08 20:11 -43.05508 -71.07087 45390 ft 439 kts 173°
2026-05-08 20:12 -43.11586 -71.06031 45402 ft 439 kts 173°
2026-05-08 20:12 -43.17650 -71.04962 45396 ft 439 kts 173°
2026-05-08 20:13 -43.23707 -71.03898 45409 ft 439 kts 173°
2026-05-08 20:13 -43.29718 -71.02837 45417 ft 438 kts 173°
2026-05-08 20:14 -43.35764 -71.01770 45420 ft 438 kts 173°
2026-05-08 20:14 -43.41809 -71.00700 45433 ft 438 kts 173°
2026-05-08 20:15 -43.47843 -70.99630 45439 ft 437 kts 173°
2026-05-08 20:15 -43.53867 -70.98559 45450 ft 436 kts 173°
2026-05-08 20:16 -43.59885 -70.97488 45456 ft 435 kts 173°
2026-05-08 20:16 -43.65895 -70.96415 45456 ft 435 kts 173°
2026-05-08 20:17 -43.71905 -70.95341 45467 ft 435 kts 173°
2026-05-08 20:17 -43.77907 -70.94266 45461 ft 435 kts 173°
2026-05-08 20:18 -43.81889 -70.93551 45466 ft 435 kts 173°
2026-05-08 20:18 -43.89893 -70.92112 45470 ft 436 kts 173°
2026-05-08 20:19 -43.95921 -70.91025 45475 ft 436 kts 173°
2026-05-08 20:19 -44.01949 -70.89937 45476 ft 437 kts 173°
2026-05-08 20:20 -44.07982 -70.88845 45457 ft 436 kts 173°
2026-05-08 20:20 -44.14004 -70.87752 45475 ft 437 kts 173°
2026-05-08 20:21 -44.20035 -70.86657 45482 ft 436 kts 173°
2026-05-08 20:21 -44.26020 -70.85567 45478 ft 436 kts 173°
2026-05-08 20:22 -44.32038 -70.84469 45477 ft 436 kts 173°
2026-05-08 20:22 -44.37079 -70.83547 45478 ft 436 kts 173°
2026-05-08 20:23 -44.44065 -70.82267 45467 ft 435 kts 173°
2026-05-08 20:23 -44.50067 -70.81166 45469 ft 436 kts 173°
2026-05-08 20:24 -44.56079 -70.80059 45473 ft 435 kts 173°
2026-05-08 20:24 -44.62092 -70.78951 45476 ft 435 kts 173°
2026-05-08 20:25 -44.68095 -70.77841 45469 ft 435 kts 173°
2026-05-08 20:25 -44.74098 -70.76730 45472 ft 436 kts 173°
2026-05-08 20:26 -44.80112 -70.75614 45469 ft 436 kts 173°
2026-05-08 20:26 -44.86128 -70.74500 45471 ft 436 kts 173°
2026-05-08 20:27 -44.92152 -70.73382 45477 ft 436 kts 173°
2026-05-08 20:27 -44.98129 -70.72270 45475 ft 436 kts 173°
2026-05-08 20:28 -45.04143 -70.71150 45483 ft 436 kts 173°
2026-05-08 20:28 -45.10158 -70.70026 45482 ft 436 kts 173°
2026-05-08 20:29 -45.15196 -70.69083 45474 ft 436 kts 173°
2026-05-08 20:29 -45.21199 -70.67958 45485 ft 435 kts 173°
2026-05-08 20:30 -45.27195 -70.66831 45484 ft 434 kts 173°
2026-05-08 20:30 -45.33148 -70.65710 45476 ft 434 kts 173°
2026-05-08 20:31 -45.39124 -70.64582 45481 ft 433 kts 173°
2026-05-08 20:31 -45.45101 -70.63452 45479 ft 433 kts 173°
2026-05-08 20:32 -45.51070 -70.62321 45473 ft 432 kts 173°
2026-05-08 20:32 -45.57034 -70.61188 45488 ft 434 kts 173°
2026-05-08 20:33 -45.62995 -70.60053 45492 ft 434 kts 173°
2026-05-08 20:33 -45.68983 -70.58912 45490 ft 434 kts 173°
2026-05-08 20:34 -45.74971 -70.57767 45485 ft 434 kts 173°
2026-05-08 20:35 -45.83957 -70.56044 45496 ft 434 kts 173°
2026-05-08 20:35 -45.89948 -70.54893 45492 ft 434 kts 173°
2026-05-08 20:36 -45.95944 -70.53742 45496 ft 435 kts 173°
2026-05-08 20:36 -46.01938 -70.52588 45501 ft 435 kts 173°
2026-05-08 20:37 -46.07931 -70.51432 45505 ft 434 kts 173°
2026-05-08 20:37 -46.13926 -70.50273 45497 ft 434 kts 173°
2026-05-08 20:38 -46.19917 -70.49112 45500 ft 434 kts 173°
2026-05-08 20:38 -46.25906 -70.47949 45494 ft 434 kts 173°
2026-05-08 20:39 -46.31902 -70.46782 45501 ft 435 kts 173°
2026-05-08 20:39 -46.37863 -70.45619 45500 ft 435 kts 173°
2026-05-08 20:40 -46.43865 -70.44445 45494 ft 435 kts 173°
2026-05-08 20:40 -46.49888 -70.43265 45497 ft 436 kts 173°
2026-05-08 20:41 -46.55911 -70.42083 45485 ft 437 kts 173°
2026-05-08 20:41 -46.61903 -70.40904 45483 ft 438 kts 173°
2026-05-08 20:42 -46.67953 -70.39710 45484 ft 439 kts 173°
2026-05-08 20:42 -46.74023 -70.38511 45498 ft 440 kts 173°
2026-05-08 20:43 -46.80094 -70.37308 45497 ft 441 kts 173°
2026-05-08 20:43 -46.86180 -70.36099 45504 ft 442 kts 173°
2026-05-08 20:44 -46.92287 -70.34883 45507 ft 443 kts 173°
2026-05-08 20:44 -46.98379 -70.33668 45521 ft 442 kts 173°
2026-05-08 20:45 -47.04468 -70.32451 45505 ft 441 kts 173°
2026-05-08 20:45 -47.10544 -70.31232 45506 ft 441 kts 173°
2026-05-08 20:46 -47.16622 -70.30011 45519 ft 441 kts 173°
2026-05-08 20:46 -47.22648 -70.28798 45512 ft 440 kts 173°
2026-05-08 20:47 -47.28703 -70.27575 45515 ft 439 kts 173°
2026-05-08 20:47 -47.34754 -70.26351 45524 ft 439 kts 173°
2026-05-08 20:48 -47.40804 -70.25124 45529 ft 438 kts 173°
2026-05-08 20:48 -47.46836 -70.23897 45525 ft 438 kts 173°
2026-05-08 20:49 -47.52865 -70.22669 45512 ft 437 kts 173°
2026-05-08 20:49 -47.58898 -70.21437 45511 ft 437 kts 173°
2026-05-08 20:50 -47.64889 -70.20211 45515 ft 437 kts 173°
2026-05-08 20:50 -47.70920 -70.18973 45513 ft 437 kts 173°
2026-05-08 20:51 -47.76958 -70.17731 45515 ft 437 kts 173°
2026-05-08 20:51 -47.82986 -70.16488 45513 ft 437 kts 173°
2026-05-08 20:52 -47.89017 -70.15242 45516 ft 437 kts 173°
2026-05-08 20:52 -47.95046 -70.13994 45516 ft 438 kts 173°
2026-05-08 20:53 -48.01035 -70.12750 45518 ft 438 kts 173°
2026-05-08 20:53 -48.07066 -70.11495 45524 ft 438 kts 173°
2026-05-08 20:54 -48.13120 -70.10232 45526 ft 440 kts 173°
2026-05-08 20:54 -48.19185 -70.08964 45529 ft 439 kts 173°
2026-05-08 20:55 -48.25246 -70.07694 45525 ft 440 kts 173°
2026-05-08 20:55 -48.31308 -70.06420 45523 ft 439 kts 173°
2026-05-08 20:56 -48.37323 -70.05154 45523 ft 440 kts 173°
2026-05-08 20:56 -48.43386 -70.03873 45525 ft 440 kts 173°
2026-05-08 20:57 -48.49455 -70.02595 45519 ft 440 kts 173°
2026-05-08 20:57 -48.55511 -70.01323 45518 ft 439 kts 173°
2026-05-08 20:58 -48.61579 -70.00041 45518 ft 441 kts 173°
2026-05-08 20:58 -48.67648 -69.98758 45515 ft 440 kts 173°
2026-05-08 20:59 -48.73711 -69.97472 45518 ft 440 kts 173°
2026-05-08 20:59 -48.79776 -69.96184 45518 ft 440 kts 173°
2026-05-08 21:00 -48.85843 -69.94891 45518 ft 441 kts 174°
2026-05-08 21:00 -48.91915 -69.93594 45510 ft 440 kts 174°
2026-05-08 21:01 -48.97982 -69.92295 45511 ft 440 kts 174°
2026-05-08 21:01 -49.04046 -69.90993 45505 ft 440 kts 174°
2026-05-08 21:02 -49.10109 -69.89689 45508 ft 440 kts 174°
2026-05-08 21:02 -49.16175 -69.88380 45509 ft 439 kts 174°
2026-05-08 21:03 -49.22230 -69.87071 45507 ft 439 kts 174°
2026-05-08 21:03 -49.28244 -69.85767 45504 ft 439 kts 174°
2026-05-08 21:04 -49.34290 -69.84453 45501 ft 439 kts 174°
2026-05-08 21:04 -49.40345 -69.83134 45498 ft 440 kts 174°
2026-05-08 21:05 -49.46397 -69.81813 45487 ft 439 kts 174°
2026-05-08 21:05 -49.52450 -69.80488 45483 ft 440 kts 174°
2026-05-08 21:06 -49.58503 -69.79158 45487 ft 439 kts 174°
2026-05-08 21:06 -49.64559 -69.77826 45489 ft 440 kts 174°
2026-05-08 21:07 -49.70616 -69.76490 45492 ft 440 kts 174°
2026-05-08 21:07 -49.76675 -69.75150 45496 ft 440 kts 174°
2026-05-08 21:08 -49.82731 -69.73807 45502 ft 440 kts 174°
2026-05-08 21:08 -49.88791 -69.72460 45502 ft 440 kts 174°
2026-05-08 21:09 -49.94860 -69.71108 45500 ft 440 kts 174°
2026-05-08 21:09 -50.00924 -69.69753 45496 ft 440 kts 174°
2026-05-08 21:10 -50.06950 -69.68404 45498 ft 440 kts 174°
2026-05-08 21:10 -50.13014 -69.67042 45498 ft 441 kts 174°
2026-05-08 21:11 -50.19084 -69.65676 45500 ft 441 kts 174°
2026-05-08 21:11 -50.25156 -69.64305 45499 ft 441 kts 174°
2026-05-08 21:12 -50.31230 -69.62931 45493 ft 441 kts 174°
2026-05-08 21:12 -50.37304 -69.61553 45503 ft 441 kts 174°
2026-05-08 21:13 -50.43381 -69.60171 45499 ft 441 kts 174°
2026-05-08 21:13 -50.49462 -69.58784 45501 ft 442 kts 174°
2026-05-08 21:14 -50.55549 -69.57392 45500 ft 442 kts 174°
2026-05-08 21:14 -50.61629 -69.55998 45492 ft 442 kts 174°
2026-05-08 21:15 -50.67716 -69.54600 45484 ft 442 kts 174°
2026-05-08 21:15 -50.73804 -69.53201 45496 ft 443 kts 174°
2026-05-08 21:16 -50.79880 -69.51836 45486 ft 444 kts 174°
2026-05-08 21:16 -50.85995 -69.50440 45497 ft 444 kts 174°
2026-05-08 21:17 -50.92118 -69.49048 45491 ft 444 kts 174°
2026-05-08 21:17 -50.97207 -69.47885 45495 ft 444 kts 174°
2026-05-08 21:18 -51.03335 -69.46481 45499 ft 445 kts 174°
2026-05-08 21:18 -51.09470 -69.45073 45493 ft 445 kts 174°
2026-05-08 21:19 -51.15603 -69.43661 45496 ft 445 kts 174°
2026-05-08 21:19 -51.21735 -69.42246 45493 ft 445 kts 174°
2026-05-08 21:20 -51.27863 -69.40828 45500 ft 445 kts 174°
2026-05-08 21:20 -51.33995 -69.39405 45494 ft 445 kts 174°
2026-05-08 21:21 -51.40084 -69.37988 45496 ft 445 kts 174°
2026-05-08 21:21 -51.46222 -69.36556 45486 ft 446 kts 174°
2026-05-08 21:22 -51.52362 -69.35119 45489 ft 446 kts 174°
2026-05-08 21:22 -51.58506 -69.33679 45488 ft 446 kts 174°
2026-05-08 21:23 -51.64474 -69.30776 45493 ft 454 kts 161°
2026-05-08 21:23 -51.70276 -69.26705 45492 ft 455 kts 161°
2026-05-08 21:24 -51.76089 -69.22662 45490 ft 455 kts 161°
2026-05-08 21:24 -51.81897 -69.18585 45494 ft 455 kts 161°
2026-05-08 21:25 -51.87676 -69.14531 45494 ft 456 kts 161°
2026-05-08 21:25 -51.93493 -69.10433 45498 ft 456 kts 161°
2026-05-08 21:26 -51.99315 -69.06321 45495 ft 456 kts 161°
2026-05-08 21:26 -52.05139 -69.02196 45500 ft 456 kts 161°
2026-05-08 21:27 -52.10966 -68.98057 45493 ft 457 kts 161°
2026-05-08 21:27 -52.16787 -68.93910 45486 ft 457 kts 161°
2026-05-08 21:28 -52.22615 -68.89746 45476 ft 457 kts 161°
2026-05-08 21:28 -52.28440 -68.85574 45479 ft 458 kts 161°
2026-05-08 21:29 -52.34230 -68.81413 45482 ft 458 kts 161°
2026-05-08 21:29 -52.40063 -68.77210 45486 ft 458 kts 161°
2026-05-08 21:30 -52.45903 -68.72989 45490 ft 459 kts 161°
2026-05-08 21:30 -52.51747 -68.68753 45491 ft 459 kts 161°
2026-05-08 21:31 -52.57593 -68.64503 45484 ft 459 kts 161°
2026-05-08 21:31 -52.63439 -68.60241 45492 ft 460 kts 161°
2026-05-08 21:32 -52.69295 -68.55959 45488 ft 460 kts 161°
2026-05-08 21:32 -52.75112 -68.51693 45481 ft 460 kts 161°
2026-05-08 21:33 -52.81076 -68.48062 45450 ft 452 kts 173°
2026-05-08 21:33 -52.87293 -68.47253 45482 ft 449 kts 180°
2026-05-08 21:34 -52.93538 -68.46658 45479 ft 449 kts 179°
2026-05-08 21:34 -52.99771 -68.46068 45484 ft 449 kts 180°
2026-05-08 21:35 -53.06016 -68.45477 45482 ft 449 kts 180°
2026-05-08 21:35 -53.12263 -68.44879 45477 ft 450 kts 180°
2026-05-08 21:36 -53.18515 -68.44283 45485 ft 450 kts 180°
2026-05-08 21:36 -53.24739 -68.43686 45482 ft 450 kts 180°
2026-05-08 21:37 -53.30940 -68.43086 44476 ft 441 kts 180°
2026-05-08 21:37 -53.33943 -68.42794 43890 ft 427 kts 180°
2026-05-08 21:37 -53.36880 -68.42512 43208 ft 417 kts 181°
2026-05-08 21:37 -53.39744 -68.42139 42520 ft 410 kts 176°
2026-05-08 21:38 -53.42507 -68.40987 41862 ft 409 kts 168°
2026-05-08 21:38 -53.45139 -68.39240 41201 ft 403 kts 165°
2026-05-08 21:38 -53.47710 -68.37492 40551 ft 394 kts 166°
2026-05-08 21:38 -53.50224 -68.35806 39916 ft 385 kts 167°
2026-05-08 21:39 -53.52686 -68.34156 39293 ft 379 kts 167°
2026-05-08 21:39 -53.55116 -68.32515 38617 ft 375 kts 167°
2026-05-08 21:39 -53.57532 -68.30879 38015 ft 374 kts 167°
2026-05-08 21:39 -53.59973 -68.29236 37406 ft 382 kts 167°
2026-05-08 21:40 -53.62470 -68.27549 36773 ft 390 kts 167°
2026-05-08 21:40 -53.65005 -68.25820 36134 ft 395 kts 166°
2026-05-08 21:40 -53.67556 -68.24077 35490 ft 397 kts 166°
2026-05-08 21:41 -53.72679 -68.20594 34150 ft 402 kts 166°
2026-05-08 21:41 -53.75273 -68.18823 33492 ft 403 kts 165°
2026-05-08 21:41 -53.77883 -68.17037 32836 ft 406 kts 165°
2026-05-08 21:41 -53.80513 -68.15237 32171 ft 409 kts 164°
2026-05-08 21:42 -53.83164 -68.13422 31499 ft 412 kts 163°
2026-05-08 21:42 -53.85837 -68.11588 30823 ft 416 kts 163°
2026-05-08 21:42 -53.88508 -68.09748 30097 ft 412 kts 162°
2026-05-08 21:42 -53.91147 -68.07927 29437 ft 408 kts 162°
2026-05-08 21:43 -53.93768 -68.06125 28769 ft 405 kts 162°
2026-05-08 21:43 -53.96376 -68.04329 28107 ft 403 kts 161°
2026-05-08 21:43 -53.98969 -68.02536 27451 ft 401 kts 161°
2026-05-08 21:43 -54.01548 -68.00750 26795 ft 399 kts 160°
2026-05-08 21:44 -54.04114 -67.98973 26151 ft 397 kts 160°
2026-05-08 21:44 -54.06670 -67.97200 25497 ft 396 kts 160°
2026-05-08 21:44 -54.09185 -67.95453 24863 ft 394 kts 159°
2026-05-08 21:44 -54.11752 -67.93668 24213 ft 393 kts 159°
2026-05-08 21:45 -54.14243 -67.91932 23533 ft 390 kts 159°
2026-05-08 21:45 -54.16750 -67.90183 22898 ft 387 kts 159°
2026-05-08 21:45 -54.19240 -67.88444 22266 ft 385 kts 159°
2026-05-08 21:45 -54.21711 -67.86715 21637 ft 383 kts 159°
2026-05-08 21:46 -54.24167 -67.84996 21015 ft 380 kts 159°
2026-05-08 21:46 -54.26610 -67.83284 20391 ft 378 kts 159°
2026-05-08 21:46 -54.29036 -67.81581 19777 ft 376 kts 159°
2026-05-08 21:46 -54.31449 -67.79884 19168 ft 373 kts 159°
2026-05-08 21:47 -54.33848 -67.78196 18531 ft 371 kts 158°
2026-05-08 21:47 -54.36230 -67.76518 17914 ft 369 kts 158°
2026-05-08 21:47 -54.38599 -67.74847 17313 ft 367 kts 158°
2026-05-08 21:47 -54.40926 -67.73204 16722 ft 366 kts 158°
2026-05-08 21:48 -54.43271 -67.71544 16127 ft 363 kts 158°
2026-05-08 21:48 -54.45609 -67.69889 15529 ft 362 kts 158°
2026-05-08 21:48 -54.47937 -67.68239 14940 ft 360 kts 158°
2026-05-08 21:48 -54.50291 -67.66811 14295 ft 358 kts 168°
2026-05-08 21:49 -54.52751 -67.66460 13743 ft 353 kts 177°
2026-05-08 21:49 -54.55206 -67.66227 13166 ft 352 kts 177°
2026-05-08 21:49 -54.57645 -67.65940 12599 ft 350 kts 176°
2026-05-08 21:49 -54.60030 -67.65656 12022 ft 334 kts 176°
2026-05-08 21:50 -54.62290 -67.65412 11488 ft 318 kts 177°
2026-05-08 21:50 -54.64426 -67.65184 10982 ft 305 kts 177°
2026-05-08 21:50 -54.66503 -67.64953 10495 ft 294 kts 177°
2026-05-08 21:50 -54.68517 -67.64724 9996 ft 285 kts 177°
2026-05-08 21:51 -54.70464 -67.64502 9530 ft 278 kts 177°
2026-05-08 21:51 -54.72372 -67.64287 9087 ft 271 kts 177°
2026-05-08 21:51 -54.74234 -67.64078 8650 ft 266 kts 177°
2026-05-08 21:51 -54.76069 -67.63882 8212 ft 262 kts 177°
2026-05-08 21:52 -54.77867 -67.63696 7796 ft 256 kts 178°
2026-05-08 21:52 -54.79597 -67.64140 7224 ft 253 kts 205°
2026-05-08 21:52 -54.80946 -67.65936 7002 ft 238 kts 227°
2026-05-08 21:52 -54.81772 -67.68346 6739 ft 232 kts 256°
2026-05-08 21:53 -54.81955 -67.71094 6582 ft 229 kts 268°
2026-05-08 21:53 -54.82053 -67.73870 6402 ft 233 kts 268°
2026-05-08 21:53 -54.82169 -67.76652 6158 ft 227 kts 267°
2026-05-08 21:53 -54.82289 -67.79324 5917 ft 218 kts 267°
2026-05-08 21:54 -54.82401 -67.81914 5672 ft 211 kts 268°
2026-05-08 21:54 -54.82506 -67.84409 5462 ft 205 kts 268°
2026-05-08 21:54 -54.82606 -67.86838 5243 ft 200 kts 268°
2026-05-08 21:54 -54.82706 -67.89207 5061 ft 195 kts 268°
2026-05-08 21:55 -54.82805 -67.91518 4920 ft 188 kts 268°
2026-05-08 21:55 -54.82900 -67.93815 4559 ft 194 kts 268°
2026-05-08 21:55 -54.82994 -67.96094 4301 ft 187 kts 268°
2026-05-08 21:56 -54.83175 -68.00475 3733 ft 170 kts 268°
2026-05-08 21:56 -54.83256 -68.02428 3433 ft 154 kts 268°
2026-05-08 21:56 -54.83329 -68.04189 3216 ft 139 kts 269°
2026-05-08 21:56 -54.83393 -68.05814 3016 ft 132 kts 269°
2026-05-08 21:57 -54.83454 -68.07373 2823 ft 129 kts 269°
2026-05-08 21:57 -54.83517 -68.08937 2611 ft 130 kts 269°
2026-05-08 21:57 -54.83581 -68.10491 2408 ft 128 kts 269°
2026-05-08 21:57 -54.83642 -68.12035 2204 ft 128 kts 269°
2026-05-08 21:58 -54.83704 -68.13572 1994 ft 128 kts 269°
2026-05-08 21:58 -54.83765 -68.15110 1772 ft 128 kts 269°
2026-05-08 21:58 -54.83826 -68.16642 1543 ft 127 kts 269°
2026-05-08 21:58 -54.83885 -68.18140 1334 ft 126 kts 268°
2026-05-08 21:59 -54.83945 -68.19663 1115 ft 127 kts 268°
2026-05-08 21:59 -54.84005 -68.21195 916 ft 128 kts 268°
2026-05-08 21:59 -54.84066 -68.22750 689 ft 130 kts 267°
2026-05-08 21:59 -54.84127 -68.24306 493 ft 128 kts 267°
2026-05-08 22:00 -54.84194 -68.25831 313 ft 125 kts 268°
2026-05-08 22:00 -54.84245 -68.27325 141 ft 124 kts 268°
2026-05-08 22:00 -54.84299 -68.28761 79 ft 111 kts 265°
2026-05-08 22:00 -54.84340 -68.29763 82 ft 54 kts 265°
2026-05-08 22:01 -54.84363 -68.30353 78 ft 47 kts 266°
2026-05-08 22:01 -54.84379 -68.30823 80 ft 25 kts 267°
2026-05-08 22:01 -54.84315 -68.30960 82 ft 13 kts 353°
2026-05-08 22:01 -54.84239 -68.30960 82 ft 8 kts 24°
2026-05-08 22:02 -54.84217 -68.30880 81 ft 8 kts 87°
2026-05-08 22:02 -54.84212 -68.30768 79 ft 10 kts 84°
2026-05-08 22:02 -54.84182 -68.30674 79 ft 9 kts 15°
2026-05-08 22:02 -54.84122 -68.30690 79 ft 9 kts 321°
2026-05-08 22:03 -54.84115 -68.30781 79 ft 6 kts 250°
2026-05-08 22:03 -54.84119 -68.30796 79 ft 0 kts 245°